Time,TemperatureF,DewpointF,PressureIn,WindDirection,WindDirectionDegrees,WindSpeedMPH,WindSpeedGustMPH,Humidity,HourlyPrecipIn,Conditions,Clouds,dailyrainin,SoftwareType,DateUTC
2013-02-14 00:00:00,30.0,17.1,29.77,North,-999,-999.0,-999.0,58,-99.99,,,-99.99,,2013-02-14 05:00:00,
2013-02-14 00:01:00,30.0,17.1,29.77,North,-999,-999.0,-999.0,58,-99.99,,,-99.99,,2013-02-14 05:01:00,
2013-02-14 00:02:00,30.0,17.1,29.77,North,-999,-999.0,-999.0,58,-99.99,,,-99.99,,2013-02-14 05:02:00,
2013-02-14 00:05:00,30.0,17.1,29.77,North,-999,-999.0,-999.0,58,-99.99,,,-99.99,,2013-02-14 05:05:00,
2013-02-14 00:10:00,30.0,17.1,29.77,North,-999,-999.0,-999.0,58,-99.99,,,-99.99,,2013-02-14 05:10:00,
2013-02-14 00:15:00,30.0,17.1,29.77,North,-999,-999.0,-999.0,58,-99.99,,,-99.99,,2013-02-14 05:15:00,
2013-02-14 00:20:00,30.0,17.1,29.77,North,-999,-999.0,-999.0,58,-99.99,,,-99.99,,2013-02-14 05:20:00,
2013-02-14 00:25:00,30.0,17.1,29.77,North,-999,-999.0,-999.0,58,-99.99,,,-99.99,,2013-02-14 05:25:00,
2013-02-14 00:31:00,30.0,17.1,29.77,North,-999,-999.0,-999.0,58,-99.99,,,-99.99,,2013-02-14 05:31:00,
2013-02-14 00:36:00,30.2,17.6,29.77,North,-999,-999.0,-999.0,59,-99.99,,,-99.99,,2013-02-14 05:36:00,
2013-02-14 00:41:00,30.2,17.6,29.77,North,-999,-999.0,-999.0,59,-99.99,,,-99.99,,2013-02-14 05:41:00,
2013-02-14 00:46:00,30.0,17.1,29.77,North,-999,-999.0,-999.0,58,-99.99,,,-99.99,,2013-02-14 05:46:00,
2013-02-14 00:51:00,29.8,16.9,29.77,North,-999,-999.0,-999.0,58,-99.99,,,-99.99,,2013-02-14 05:51:00,
2013-02-14 00:57:00,29.8,16.9,29.77,North,-999,-999.0,-999.0,58,-99.99,,,-99.99,,2013-02-14 05:57:00,
2013-02-14 01:02:00,29.8,17.3,29.77,North,-999,-999.0,-999.0,59,-99.99,,,-99.99,,2013-02-14 06:02:00,
2013-02-14 01:07:00,29.8,16.9,29.77,North,-999,-999.0,-999.0,58,-99.99,,,-99.99,,2013-02-14 06:07:00,
2013-02-14 01:12:00,29.8,16.9,29.77,North,-999,-999.0,-999.0,58,-99.99,,,-99.99,,2013-02-14 06:12:00,
2013-02-14 01:17:00,29.8,16.9,29.80,North,-999,-999.0,-999.0,58,-99.99,,,-99.99,,2013-02-14 06:17:00,
2013-02-14 01:23:00,29.8,16.9,29.80,North,-999,-999.0,-999.0,58,-99.99,,,-99.99,,2013-02-14 06:23:00,
2013-02-14 01:28:00,30.0,17.5,29.80,North,-999,-999.0,-999.0,59,-99.99,,,-99.99,,2013-02-14 06:28:00,
2013-02-14 01:33:00,30.0,17.5,29.80,North,-999,-999.0,-999.0,59,-99.99,,,-99.99,,2013-02-14 06:33:00,
2013-02-14 01:38:00,30.2,17.2,29.80,North,-999,-999.0,-999.0,58,-99.99,,,-99.99,,2013-02-14 06:38:00,
2013-02-14 01:43:00,30.2,17.6,29.80,North,-999,-999.0,-999.0,59,-99.99,,,-99.99,,2013-02-14 06:43:00,
2013-02-14 01:49:00,30.4,17.4,29.80,North,-999,-999.0,-999.0,58,-99.99,,,-99.99,,2013-02-14 06:49:00,
2013-02-14 01:54:00,30.4,17.4,29.80,North,-999,-999.0,-999.0,58,-99.99,,,-99.99,,2013-02-14 06:54:00,
2013-02-14 01:59:00,30.6,17.6,29.80,North,-999,-999.0,-999.0,58,-99.99,,,-99.99,,2013-02-14 06:59:00,
2013-02-14 02:04:00,30.7,17.8,29.80,North,-999,-999.0,-999.0,58,-99.99,,,-99.99,,2013-02-14 07:04:00,
2013-02-14 02:09:00,30.9,17.9,29.80,North,-999,-999.0,-999.0,58,-99.99,,,-99.99,,2013-02-14 07:09:00,
2013-02-14 02:15:00,30.9,17.9,29.80,North,-999,-999.0,-999.0,58,-99.99,,,-99.99,,2013-02-14 07:15:00,
2013-02-14 02:20:00,31.1,18.1,29.80,North,-999,-999.0,-999.0,58,-99.99,,,-99.99,,2013-02-14 07:20:00,
2013-02-14 02:25:00,31.1,18.1,29.80,North,-999,-999.0,-999.0,58,-99.99,,,-99.99,,2013-02-14 07:25:00,
2013-02-14 02:30:00,31.3,18.3,29.80,North,-999,-999.0,-999.0,58,-99.99,,,-99.99,,2013-02-14 07:30:00,
2013-02-14 02:35:00,31.5,18.4,29.80,North,-999,-999.0,-999.0,58,-99.99,,,-99.99,,2013-02-14 07:35:00,
2013-02-14 02:41:00,31.6,18.6,29.80,North,-999,-999.0,-999.0,58,-99.99,,,-99.99,,2013-02-14 07:41:00,
2013-02-14 02:46:00,31.6,18.6,29.80,North,-999,-999.0,-999.0,58,-99.99,,,-99.99,,2013-02-14 07:46:00,
2013-02-14 02:52:00,31.6,18.6,29.80,North,-999,-999.0,-999.0,58,-99.99,,,-99.99,,2013-02-14 07:52:00,
2013-02-14 02:57:00,31.8,18.8,29.80,North,-999,-999.0,-999.0,58,-99.99,,,-99.99,,2013-02-14 07:57:00,
2013-02-14 03:02:00,31.8,18.8,29.80,North,-999,-999.0,-999.0,58,-99.99,,,-99.99,,2013-02-14 08:02:00,
2013-02-14 03:08:00,31.8,18.8,29.80,North,-999,-999.0,-999.0,58,-99.99,,,-99.99,,2013-02-14 08:08:00,
2013-02-14 03:13:00,31.8,18.8,29.80,North,-999,-999.0,-999.0,58,-99.99,,,-99.99,,2013-02-14 08:13:00,
2013-02-14 03:18:00,31.6,18.6,29.80,North,-999,-999.0,-999.0,58,-99.99,,,-99.99,,2013-02-14 08:18:00,
2013-02-14 03:24:00,31.6,18.6,29.80,North,-999,-999.0,-999.0,58,-99.99,,,-99.99,,2013-02-14 08:24:00,
2013-02-14 03:29:00,31.6,18.6,29.80,North,-999,-999.0,-999.0,58,-99.99,,,-99.99,,2013-02-14 08:29:00,
2013-02-14 03:34:00,31.6,18.6,29.80,North,-999,-999.0,-999.0,58,-99.99,,,-99.99,,2013-02-14 08:34:00,
2013-02-14 03:39:00,31.5,18.4,29.80,North,-999,-999.0,-999.0,58,-99.99,,,-99.99,,2013-02-14 08:39:00,
2013-02-14 03:44:00,31.5,18.4,29.80,North,-999,-999.0,-999.0,58,-99.99,,,-99.99,,2013-02-14 08:44:00,
2013-02-14 03:50:00,31.5,18.4,29.80,North,-999,-999.0,-999.0,58,-99.99,,,-99.99,,2013-02-14 08:50:00,
2013-02-14 03:55:00,31.5,18.4,29.80,North,-999,-999.0,-999.0,58,-99.99,,,-99.99,,2013-02-14 08:55:00,
2013-02-14 04:00:00,31.5,18.4,29.80,North,-999,-999.0,-999.0,58,-99.99,,,-99.99,,2013-02-14 09:00:00,
2013-02-14 04:05:00,31.5,18.8,29.83,North,-999,-999.0,-999.0,59,-99.99,,,-99.99,,2013-02-14 09:05:00,
2013-02-14 04:10:00,31.5,18.8,29.83,North,-999,-999.0,-999.0,59,-99.99,,,-99.99,,2013-02-14 09:10:00,
2013-02-14 04:16:00,31.3,18.7,29.83,North,-999,-999.0,-999.0,59,-99.99,,,-99.99,,2013-02-14 09:16:00,
2013-02-14 04:21:00,31.3,18.7,29.83,North,-999,-999.0,-999.0,59,-99.99,,,-99.99,,2013-02-14 09:21:00,
2013-02-14 04:27:00,31.1,18.5,29.83,North,-999,-999.0,-999.0,59,-99.99,,,-99.99,,2013-02-14 09:27:00,
2013-02-14 04:32:00,31.1,18.5,29.83,North,-999,-999.0,-999.0,59,-99.99,,,-99.99,,2013-02-14 09:32:00,
2013-02-14 04:38:00,30.9,18.3,29.83,North,-999,-999.0,-999.0,59,-99.99,,,-99.99,,2013-02-14 09:38:00,
2013-02-14 04:43:00,30.7,18.2,29.83,North,-999,-999.0,-999.0,59,-99.99,,,-99.99,,2013-02-14 09:43:00,
2013-02-14 04:49:00,30.7,18.2,29.83,North,-999,-999.0,-999.0,59,-99.99,,,-99.99,,2013-02-14 09:49:00,
2013-02-14 04:54:00,30.7,18.5,29.83,North,-999,-999.0,-999.0,60,-99.99,,,-99.99,,2013-02-14 09:54:00,
2013-02-14 04:59:00,30.9,18.7,29.83,North,-999,-999.0,-999.0,60,-99.99,,,-99.99,,2013-02-14 09:59:00,
2013-02-14 05:04:00,30.9,18.7,29.83,North,-999,-999.0,-999.0,60,-99.99,,,-99.99,,2013-02-14 10:04:00,
2013-02-14 05:10:00,30.9,18.7,29.83,North,-999,-999.0,-999.0,60,-99.99,,,-99.99,,2013-02-14 10:10:00,
2013-02-14 05:15:00,31.1,18.9,29.83,North,-999,-999.0,-999.0,60,-99.99,,,-99.99,,2013-02-14 10:15:00,
2013-02-14 05:21:00,31.1,18.9,29.83,North,-999,-999.0,-999.0,60,-99.99,,,-99.99,,2013-02-14 10:21:00,
2013-02-14 05:26:00,31.1,19.3,29.83,North,-999,-999.0,-999.0,61,-99.99,,,-99.99,,2013-02-14 10:26:00,
2013-02-14 05:31:00,31.1,19.3,29.83,North,-999,-999.0,-999.0,61,-99.99,,,-99.99,,2013-02-14 10:31:00,
2013-02-14 05:36:00,31.3,19.4,29.83,North,-999,-999.0,-999.0,61,-99.99,,,-99.99,,2013-02-14 10:36:00,
2013-02-14 05:42:00,31.3,19.4,29.83,North,-999,-999.0,-999.0,61,-99.99,,,-99.99,,2013-02-14 10:42:00,
2013-02-14 05:47:00,31.5,19.6,29.83,North,-999,-999.0,-999.0,61,-99.99,,,-99.99,,2013-02-14 10:47:00,
2013-02-14 05:53:00,31.5,19.6,29.83,North,-999,-999.0,-999.0,61,-99.99,,,-99.99,,2013-02-14 10:53:00,
2013-02-14 05:58:00,31.5,19.6,29.83,North,-999,-999.0,-999.0,61,-99.99,,,-99.99,,2013-02-14 10:58:00,
2013-02-14 06:03:00,31.5,19.6,29.86,North,-999,-999.0,-999.0,61,-99.99,,,-99.99,,2013-02-14 11:03:00,
2013-02-14 06:09:00,31.6,19.8,29.86,North,-999,-999.0,-999.0,61,-99.99,,,-99.99,,2013-02-14 11:09:00,
2013-02-14 06:14:00,31.6,19.8,29.86,North,-999,-999.0,-999.0,61,-99.99,,,-99.99,,2013-02-14 11:14:00,
2013-02-14 06:19:00,31.6,19.8,29.86,North,-999,-999.0,-999.0,61,-99.99,,,-99.99,,2013-02-14 11:19:00,
2013-02-14 06:24:00,31.6,19.8,29.86,North,-999,-999.0,-999.0,61,-99.99,,,-99.99,,2013-02-14 11:24:00,
2013-02-14 06:29:00,31.8,19.9,29.86,North,-999,-999.0,-999.0,61,-99.99,,,-99.99,,2013-02-14 11:29:00,
2013-02-14 06:35:00,31.8,19.9,29.86,North,-999,-999.0,-999.0,61,-99.99,,,-99.99,,2013-02-14 11:35:00,
2013-02-14 06:41:00,31.8,19.9,29.86,North,-999,-999.0,-999.0,61,-99.99,,,-99.99,,2013-02-14 11:41:00,
2013-02-14 06:46:00,31.8,19.9,29.86,North,-999,-999.0,-999.0,61,-99.99,,,-99.99,,2013-02-14 11:46:00,
2013-02-14 06:51:00,31.8,19.9,29.86,North,-999,-999.0,-999.0,61,-99.99,,,-99.99,,2013-02-14 11:51:00,
2013-02-14 06:56:00,31.8,19.9,29.86,North,-999,-999.0,-999.0,61,-99.99,,,-99.99,,2013-02-14 11:56:00,
2013-02-14 07:03:00,32.0,20.1,29.86,North,-999,-999.0,-999.0,61,-99.99,,,-99.99,,2013-02-14 12:03:00,
2013-02-14 07:08:00,32.0,20.1,29.86,North,-999,-999.0,-999.0,61,-99.99,,,-99.99,,2013-02-14 12:08:00,
2013-02-14 07:14:00,32.0,20.1,29.86,North,-999,-999.0,-999.0,61,-99.99,,,-99.99,,2013-02-14 12:14:00,
2013-02-14 07:19:00,32.2,20.3,29.86,North,-999,-999.0,-999.0,61,-99.99,,,-99.99,,2013-02-14 12:19:00,
2013-02-14 07:24:00,32.2,20.3,29.86,North,-999,-999.0,-999.0,61,-99.99,,,-99.99,,2013-02-14 12:24:00,
2013-02-14 07:29:00,32.2,20.3,29.86,North,-999,-999.0,-999.0,61,-99.99,,,-99.99,,2013-02-14 12:29:00,
2013-02-14 07:34:00,32.2,20.3,29.86,North,-999,-999.0,-999.0,61,-99.99,,,-99.99,,2013-02-14 12:34:00,
2013-02-14 07:40:00,32.4,20.5,29.86,North,-999,-999.0,-999.0,61,-99.99,,,-99.99,,2013-02-14 12:40:00,
2013-02-14 07:45:00,32.4,20.5,29.86,North,-999,-999.0,-999.0,61,-99.99,,,-99.99,,2013-02-14 12:45:00,
2013-02-14 07:50:00,32.5,20.6,29.89,North,-999,-999.0,-999.0,61,-99.99,,,-99.99,,2013-02-14 12:50:00,
2013-02-14 07:55:00,32.5,20.6,29.89,North,-999,-999.0,-999.0,61,-99.99,,,-99.99,,2013-02-14 12:55:00,
2013-02-14 08:00:00,32.7,20.8,29.89,North,-999,-999.0,-999.0,61,-99.99,,,-99.99,,2013-02-14 13:00:00,
2013-02-14 08:06:00,32.7,20.8,29.89,North,-999,-999.0,-999.0,61,-99.99,,,-99.99,,2013-02-14 13:06:00,
2013-02-14 08:11:00,32.9,21.0,29.89,North,-999,-999.0,-999.0,61,-99.99,,,-99.99,,2013-02-14 13:11:00,
2013-02-14 08:16:00,33.1,21.1,29.89,North,-999,-999.0,-999.0,61,-99.99,,,-99.99,,2013-02-14 13:16:00,
2013-02-14 08:22:00,33.1,21.1,29.89,North,-999,-999.0,-999.0,61,-99.99,,,-99.99,,2013-02-14 13:22:00,
2013-02-14 08:28:00,33.3,21.3,29.89,North,-999,-999.0,-999.0,61,-99.99,,,-99.99,,2013-02-14 13:28:00,
2013-02-14 08:33:00,33.4,21.5,29.89,North,-999,-999.0,-999.0,61,-99.99,,,-99.99,,2013-02-14 13:33:00,
2013-02-14 08:38:00,33.6,21.3,29.89,North,-999,-999.0,-999.0,60,-99.99,,,-99.99,,2013-02-14 13:38:00,
2013-02-14 08:43:00,33.6,21.3,29.89,North,-999,-999.0,-999.0,60,-99.99,,,-99.99,,2013-02-14 13:43:00,
2013-02-14 08:49:00,33.8,21.0,29.89,North,-999,-999.0,-999.0,59,-99.99,,,-99.99,,2013-02-14 13:49:00,
2013-02-14 08:54:00,34.0,21.2,29.89,North,-999,-999.0,-999.0,59,-99.99,,,-99.99,,2013-02-14 13:54:00,
2013-02-14 09:00:00,34.0,21.2,29.89,North,-999,-999.0,-999.0,59,-99.99,,,-99.99,,2013-02-14 14:00:00,
2013-02-14 09:05:00,34.2,21.4,29.89,North,-999,-999.0,-999.0,59,-99.99,,,-99.99,,2013-02-14 14:05:00,
2013-02-14 09:11:00,34.3,21.5,29.89,North,-999,-999.0,-999.0,59,-99.99,,,-99.99,,2013-02-14 14:11:00,
2013-02-14 09:17:00,34.3,21.1,29.89,North,-999,-999.0,-999.0,58,-99.99,,,-99.99,,2013-02-14 14:17:00,
2013-02-14 09:22:00,34.5,21.3,29.89,North,-999,-999.0,-999.0,58,-99.99,,,-99.99,,2013-02-14 14:22:00,
2013-02-14 09:28:00,34.5,21.3,29.89,North,-999,-999.0,-999.0,58,-99.99,,,-99.99,,2013-02-14 14:28:00,
2013-02-14 09:34:00,34.7,21.5,29.89,North,-999,-999.0,-999.0,58,-99.99,,,-99.99,,2013-02-14 14:34:00,
2013-02-14 09:39:00,34.9,21.2,29.89,North,-999,-999.0,-999.0,57,-99.99,,,-99.99,,2013-02-14 14:39:00,
2013-02-14 09:44:00,35.1,21.4,29.89,North,-999,-999.0,-999.0,57,-99.99,,,-99.99,,2013-02-14 14:44:00,
2013-02-14 09:50:00,35.1,21.4,29.89,North,-999,-999.0,-999.0,57,-99.99,,,-99.99,,2013-02-14 14:50:00,
2013-02-14 09:55:00,35.1,21.4,29.89,North,-999,-999.0,-999.0,57,-99.99,,,-99.99,,2013-02-14 14:55:00,
2013-02-14 10:00:00,35.2,21.2,29.89,North,-999,-999.0,-999.0,56,-99.99,,,-99.99,,2013-02-14 15:00:00,
2013-02-14 10:05:00,35.4,21.3,29.89,North,-999,-999.0,-999.0,56,-99.99,,,-99.99,,2013-02-14 15:05:00,
2013-02-14 10:10:00,35.6,21.1,29.89,North,-999,-999.0,-999.0,55,-99.99,,,-99.99,,2013-02-14 15:10:00,
2013-02-14 10:16:00,35.8,21.2,29.89,North,-999,-999.0,-999.0,55,-99.99,,,-99.99,,2013-02-14 15:16:00,
2013-02-14 10:21:00,36.0,21.4,29.89,North,-999,-999.0,-999.0,55,-99.99,,,-99.99,,2013-02-14 15:21:00,
2013-02-14 10:26:00,36.1,21.1,29.89,North,-999,-999.0,-999.0,54,-99.99,,,-99.99,,2013-02-14 15:26:00,
2013-02-14 10:31:00,36.1,20.7,29.89,North,-999,-999.0,-999.0,53,-99.99,,,-99.99,,2013-02-14 15:31:00,
2013-02-14 10:36:00,36.3,20.9,29.86,North,-999,-999.0,-999.0,53,-99.99,,,-99.99,,2013-02-14 15:36:00,
2013-02-14 10:42:00,36.5,21.0,29.86,North,-999,-999.0,-999.0,53,-99.99,,,-99.99,,2013-02-14 15:42:00,
2013-02-14 10:47:00,36.7,20.8,29.86,North,-999,-999.0,-999.0,52,-99.99,,,-99.99,,2013-02-14 15:47:00,
2013-02-14 10:52:00,36.7,20.8,29.86,North,-999,-999.0,-999.0,52,-99.99,,,-99.99,,2013-02-14 15:52:00,
2013-02-14 10:57:00,37.0,20.6,29.86,North,-999,-999.0,-999.0,51,-99.99,,,-99.99,,2013-02-14 15:57:00,
2013-02-14 11:02:00,37.4,21.0,29.86,North,-999,-999.0,-999.0,51,-99.99,,,-99.99,,2013-02-14 16:02:00,
2013-02-14 11:08:00,37.9,21.0,29.86,North,-999,-999.0,-999.0,50,-99.99,,,-99.99,,2013-02-14 16:08:00,
2013-02-14 11:13:00,38.8,21.8,29.86,North,-999,-999.0,-999.0,50,-99.99,,,-99.99,,2013-02-14 16:13:00,
2013-02-14 11:18:00,39.4,21.9,29.86,North,-999,-999.0,-999.0,49,-99.99,,,-99.99,,2013-02-14 16:18:00,
2013-02-14 11:23:00,39.6,22.0,29.86,North,-999,-999.0,-999.0,49,-99.99,,,-99.99,,2013-02-14 16:23:00,
2013-02-14 11:28:00,39.7,21.7,29.86,North,-999,-999.0,-999.0,48,-99.99,,,-99.99,,2013-02-14 16:28:00,
2013-02-14 11:34:00,39.9,21.4,29.86,North,-999,-999.0,-999.0,47,-99.99,,,-99.99,,2013-02-14 16:34:00,
2013-02-14 11:39:00,39.9,21.4,29.86,North,-999,-999.0,-999.0,47,-99.99,,,-99.99,,2013-02-14 16:39:00,
2013-02-14 11:44:00,39.9,21.4,29.86,North,-999,-999.0,-999.0,47,-99.99,,,-99.99,,2013-02-14 16:44:00,
2013-02-14 11:49:00,40.3,21.2,29.86,North,-999,-999.0,-999.0,46,-99.99,,,-99.99,,2013-02-14 16:49:00,
2013-02-14 11:54:00,40.3,21.2,29.86,North,-999,-999.0,-999.0,46,-99.99,,,-99.99,,2013-02-14 16:54:00,
2013-02-14 12:00:00,40.5,21.4,29.86,North,-999,-999.0,-999.0,46,-99.99,,,-99.99,,2013-02-14 17:00:00,
2013-02-14 12:05:00,40.6,21.0,29.83,North,-999,-999.0,-999.0,45,-99.99,,,-99.99,,2013-02-14 17:05:00,
2013-02-14 12:10:00,40.6,21.0,29.83,North,-999,-999.0,-999.0,45,-99.99,,,-99.99,,2013-02-14 17:10:00,
2013-02-14 12:15:00,40.6,21.0,29.83,North,-999,-999.0,-999.0,45,-99.99,,,-99.99,,2013-02-14 17:15:00,
2013-02-14 12:20:00,40.8,20.6,29.83,North,-999,-999.0,-999.0,44,-99.99,,,-99.99,,2013-02-14 17:20:00,
2013-02-14 12:26:00,41.2,21.0,29.83,North,-999,-999.0,-999.0,44,-99.99,,,-99.99,,2013-02-14 17:26:00,
2013-02-14 12:31:00,41.5,21.3,29.83,North,-999,-999.0,-999.0,44,-99.99,,,-99.99,,2013-02-14 17:31:00,
2013-02-14 12:36:00,41.2,20.4,29.83,North,-999,-999.0,-999.0,43,-99.99,,,-99.99,,2013-02-14 17:36:00,
2013-02-14 12:41:00,41.7,20.9,29.83,North,-999,-999.0,-999.0,43,-99.99,,,-99.99,,2013-02-14 17:41:00,
2013-02-14 12:46:00,41.7,20.9,29.83,North,-999,-999.0,-999.0,43,-99.99,,,-99.99,,2013-02-14 17:46:00,
2013-02-14 12:52:00,41.7,20.4,29.83,North,-999,-999.0,-999.0,42,-99.99,,,-99.99,,2013-02-14 17:52:00,
2013-02-14 12:57:00,41.7,20.4,29.83,North,-999,-999.0,-999.0,42,-99.99,,,-99.99,,2013-02-14 17:57:00,
2013-02-14 13:02:00,42.3,20.9,29.80,North,-999,-999.0,-999.0,42,-99.99,,,-99.99,,2013-02-14 18:02:00,
2013-02-14 13:07:00,42.1,20.7,29.80,North,-999,-999.0,-999.0,42,-99.99,,,-99.99,,2013-02-14 18:07:00,
2013-02-14 13:12:00,42.1,20.7,29.80,North,-999,-999.0,-999.0,42,-99.99,,,-99.99,,2013-02-14 18:12:00,
2013-02-14 13:18:00,42.3,20.9,29.80,North,-999,-999.0,-999.0,42,-99.99,,,-99.99,,2013-02-14 18:18:00,
2013-02-14 13:23:00,42.6,21.2,29.80,North,-999,-999.0,-999.0,42,-99.99,,,-99.99,,2013-02-14 18:23:00,
2013-02-14 13:28:00,42.8,20.8,29.80,North,-999,-999.0,-999.0,41,-99.99,,,-99.99,,2013-02-14 18:28:00,
2013-02-14 13:33:00,43.0,20.9,29.80,North,-999,-999.0,-999.0,41,-99.99,,,-99.99,,2013-02-14 18:33:00,
2013-02-14 13:38:00,43.0,20.9,29.80,North,-999,-999.0,-999.0,41,-99.99,,,-99.99,,2013-02-14 18:38:00,
2013-02-14 13:44:00,43.0,20.9,29.80,North,-999,-999.0,-999.0,41,-99.99,,,-99.99,,2013-02-14 18:44:00,
2013-02-14 13:49:00,43.0,20.9,29.80,North,-999,-999.0,-999.0,41,-99.99,,,-99.99,,2013-02-14 18:49:00,
2013-02-14 13:54:00,43.0,20.9,29.80,North,-999,-999.0,-999.0,41,-99.99,,,-99.99,,2013-02-14 18:54:00,
2013-02-14 13:59:00,43.2,20.5,29.80,North,-999,-999.0,-999.0,40,-99.99,,,-99.99,,2013-02-14 18:59:00,
2013-02-14 14:04:00,43.3,20.7,29.80,North,-999,-999.0,-999.0,40,-99.99,,,-99.99,,2013-02-14 19:04:00,
2013-02-14 14:10:00,43.3,20.7,29.80,North,-999,-999.0,-999.0,40,-99.99,,,-99.99,,2013-02-14 19:10:00,
2013-02-14 14:15:00,43.5,20.9,29.80,North,-999,-999.0,-999.0,40,-99.99,,,-99.99,,2013-02-14 19:15:00,
2013-02-14 14:20:00,43.3,20.7,29.80,North,-999,-999.0,-999.0,40,-99.99,,,-99.99,,2013-02-14 19:20:00,
2013-02-14 14:25:00,43.3,20.7,29.80,North,-999,-999.0,-999.0,40,-99.99,,,-99.99,,2013-02-14 19:25:00,
2013-02-14 14:30:00,43.3,20.7,29.80,North,-999,-999.0,-999.0,40,-99.99,,,-99.99,,2013-02-14 19:30:00,
2013-02-14 14:36:00,43.3,20.7,29.80,North,-999,-999.0,-999.0,40,-99.99,,,-99.99,,2013-02-14 19:36:00,
2013-02-14 14:41:00,43.3,20.7,29.80,North,-999,-999.0,-999.0,40,-99.99,,,-99.99,,2013-02-14 19:41:00,
2013-02-14 14:46:00,43.3,20.7,29.80,North,-999,-999.0,-999.0,40,-99.99,,,-99.99,,2013-02-14 19:46:00,
2013-02-14 14:51:00,43.2,20.5,29.77,North,-999,-999.0,-999.0,40,-99.99,,,-99.99,,2013-02-14 19:51:00,
2013-02-14 14:56:00,42.8,20.2,29.77,North,-999,-999.0,-999.0,40,-99.99,,,-99.99,,2013-02-14 19:56:00,
2013-02-14 15:02:00,42.6,20.6,29.77,North,-999,-999.0,-999.0,41,-99.99,,,-99.99,,2013-02-14 20:02:00,
2013-02-14 15:07:00,42.6,20.6,29.77,North,-999,-999.0,-999.0,41,-99.99,,,-99.99,,2013-02-14 20:07:00,
2013-02-14 15:12:00,42.4,20.5,29.77,North,-999,-999.0,-999.0,41,-99.99,,,-99.99,,2013-02-14 20:12:00,
2013-02-14 15:17:00,42.4,21.0,29.77,North,-999,-999.0,-999.0,42,-99.99,,,-99.99,,2013-02-14 20:17:00,
2013-02-14 15:22:00,42.3,20.9,29.77,North,-999,-999.0,-999.0,42,-99.99,,,-99.99,,2013-02-14 20:22:00,
2013-02-14 15:28:00,42.1,21.3,29.77,North,-999,-999.0,-999.0,43,-99.99,,,-99.99,,2013-02-14 20:28:00,
2013-02-14 15:33:00,42.1,21.8,29.80,North,-999,-999.0,-999.0,44,-99.99,,,-99.99,,2013-02-14 20:33:00,
2013-02-14 15:38:00,42.1,22.3,29.80,North,-999,-999.0,-999.0,45,-99.99,,,-99.99,,2013-02-14 20:38:00,
2013-02-14 15:43:00,41.9,22.7,29.80,North,-999,-999.0,-999.0,46,-99.99,,,-99.99,,2013-02-14 20:43:00,
2013-02-14 15:48:00,41.9,22.7,29.77,North,-999,-999.0,-999.0,46,-99.99,,,-99.99,,2013-02-14 20:48:00,
2013-02-14 15:54:00,41.7,23.0,29.77,North,-999,-999.0,-999.0,47,-99.99,,,-99.99,,2013-02-14 20:54:00,
2013-02-14 15:59:00,41.7,23.5,29.77,North,-999,-999.0,-999.0,48,-99.99,,,-99.99,,2013-02-14 20:59:00,
2013-02-14 16:04:00,41.7,24.0,29.77,North,-999,-999.0,-999.0,49,-99.99,,,-99.99,,2013-02-14 21:04:00,
2013-02-14 16:09:00,41.5,23.8,29.77,North,-999,-999.0,-999.0,49,-99.99,,,-99.99,,2013-02-14 21:09:00,
2013-02-14 16:14:00,41.5,24.3,29.77,North,-999,-999.0,-999.0,50,-99.99,,,-99.99,,2013-02-14 21:14:00,
2013-02-14 16:20:00,41.5,24.3,29.77,North,-999,-999.0,-999.0,50,-99.99,,,-99.99,,2013-02-14 21:20:00,
2013-02-14 16:25:00,41.4,24.6,29.77,North,-999,-999.0,-999.0,51,-99.99,,,-99.99,,2013-02-14 21:25:00,
2013-02-14 16:30:00,41.2,24.5,29.77,North,-999,-999.0,-999.0,51,-99.99,,,-99.99,,2013-02-14 21:30:00,
2013-02-14 16:35:00,41.2,24.9,29.77,North,-999,-999.0,-999.0,52,-99.99,,,-99.99,,2013-02-14 21:35:00,
2013-02-14 16:42:00,41.2,24.9,29.77,North,-999,-999.0,-999.0,52,-99.99,,,-99.99,,2013-02-14 21:42:00,
2013-02-14 16:47:00,41.2,25.4,29.77,North,-999,-999.0,-999.0,53,-99.99,,,-99.99,,2013-02-14 21:47:00,
2013-02-14 16:52:00,41.2,25.8,29.77,North,-999,-999.0,-999.0,54,-99.99,,,-99.99,,2013-02-14 21:52:00,
2013-02-14 16:57:00,41.2,26.3,29.77,North,-999,-999.0,-999.0,55,-99.99,,,-99.99,,2013-02-14 21:57:00,
2013-02-14 17:03:00,41.2,26.3,29.80,North,-999,-999.0,-999.0,55,-99.99,,,-99.99,,2013-02-14 22:03:00,
2013-02-14 17:08:00,41.2,26.7,29.80,North,-999,-999.0,-999.0,56,-99.99,,,-99.99,,2013-02-14 22:08:00,
2013-02-14 17:13:00,41.0,27.0,29.80,North,-999,-999.0,-999.0,57,-99.99,,,-99.99,,2013-02-14 22:13:00,
2013-02-14 17:18:00,41.0,27.4,29.80,North,-999,-999.0,-999.0,58,-99.99,,,-99.99,,2013-02-14 22:18:00,
2013-02-14 17:23:00,41.0,27.4,29.80,North,-999,-999.0,-999.0,58,-99.99,,,-99.99,,2013-02-14 22:23:00,
2013-02-14 17:29:00,41.0,27.8,29.80,North,-999,-999.0,-999.0,59,-99.99,,,-99.99,,2013-02-14 22:29:00,
2013-02-14 17:34:00,40.8,28.0,29.80,North,-999,-999.0,-999.0,60,-99.99,,,-99.99,,2013-02-14 22:34:00,
2013-02-14 17:39:00,40.8,28.0,29.80,North,-999,-999.0,-999.0,60,-99.99,,,-99.99,,2013-02-14 22:39:00,
2013-02-14 17:44:00,40.6,28.3,29.80,North,-999,-999.0,-999.0,61,-99.99,,,-99.99,,2013-02-14 22:44:00,
2013-02-14 17:49:00,40.6,28.3,29.80,North,-999,-999.0,-999.0,61,-99.99,,,-99.99,,2013-02-14 22:49:00,
2013-02-14 17:55:00,40.6,28.3,29.80,North,-999,-999.0,-999.0,61,-99.99,,,-99.99,,2013-02-14 22:55:00,
2013-02-14 18:00:00,40.5,28.5,29.80,North,-999,-999.0,-999.0,62,-99.99,,,-99.99,,2013-02-14 23:00:00,
2013-02-14 18:06:00,40.5,28.5,29.80,North,-999,-999.0,-999.0,62,-99.99,,,-99.99,,2013-02-14 23:06:00,
2013-02-14 18:11:00,40.5,28.9,29.80,North,-999,-999.0,-999.0,63,-99.99,,,-99.99,,2013-02-14 23:11:00,
2013-02-14 18:16:00,40.5,28.9,29.80,North,-999,-999.0,-999.0,63,-99.99,,,-99.99,,2013-02-14 23:16:00,
2013-02-14 18:22:00,40.3,29.1,29.80,North,-999,-999.0,-999.0,64,-99.99,,,-99.99,,2013-02-14 23:22:00,
2013-02-14 18:27:00,40.3,29.1,29.80,North,-999,-999.0,-999.0,64,-99.99,,,-99.99,,2013-02-14 23:27:00,
2013-02-14 18:32:00,40.3,29.1,29.80,North,-999,-999.0,-999.0,64,-99.99,,,-99.99,,2013-02-14 23:32:00,
2013-02-14 18:37:00,40.3,29.5,29.80,North,-999,-999.0,-999.0,65,-99.99,,,-99.99,,2013-02-14 23:37:00,
2013-02-14 18:43:00,40.3,29.5,29.80,North,-999,-999.0,-999.0,65,-99.99,,,-99.99,,2013-02-14 23:43:00,
2013-02-14 18:49:00,40.1,29.7,29.80,North,-999,-999.0,-999.0,66,-99.99,,,-99.99,,2013-02-14 23:49:00,
2013-02-14 18:54:00,40.1,29.7,29.80,North,-999,-999.0,-999.0,66,-99.99,,,-99.99,,2013-02-14 23:54:00,
2013-02-14 19:00:00,39.9,29.9,29.80,North,-999,-999.0,-999.0,67,-99.99,,,-99.99,,2013-02-15 00:00:00,
2013-02-14 19:05:00,39.9,29.9,29.80,North,-999,-999.0,-999.0,67,-99.99,,,-99.99,,2013-02-15 00:05:00,
2013-02-14 19:10:00,39.9,30.2,29.80,North,-999,-999.0,-999.0,68,-99.99,,,-99.99,,2013-02-15 00:10:00,
2013-02-14 19:15:00,39.9,30.2,29.80,North,-999,-999.0,-999.0,68,-99.99,,,-99.99,,2013-02-15 00:15:00,
2013-02-14 19:20:00,39.9,30.2,29.80,North,-999,-999.0,-999.0,68,-99.99,,,-99.99,,2013-02-15 00:20:00,
2013-02-14 19:26:00,39.9,30.2,29.80,North,-999,-999.0,-999.0,68,-99.99,,,-99.99,,2013-02-15 00:26:00,
2013-02-14 19:31:00,39.7,30.4,29.80,North,-999,-999.0,-999.0,69,-99.99,,,-99.99,,2013-02-15 00:31:00,
2013-02-14 19:36:00,39.7,30.4,29.80,North,-999,-999.0,-999.0,69,-99.99,,,-99.99,,2013-02-15 00:36:00,
2013-02-14 19:42:00,39.7,30.4,29.80,North,-999,-999.0,-999.0,69,-99.99,,,-99.99,,2013-02-15 00:42:00,
2013-02-14 19:47:00,39.7,30.4,29.80,North,-999,-999.0,-999.0,69,-99.99,,,-99.99,,2013-02-15 00:47:00,
2013-02-14 19:52:00,39.7,30.4,29.80,North,-999,-999.0,-999.0,69,-99.99,,,-99.99,,2013-02-15 00:52:00,
2013-02-14 19:57:00,39.6,30.3,29.80,North,-999,-999.0,-999.0,69,-99.99,,,-99.99,,2013-02-15 00:57:00,
2013-02-14 20:03:00,39.6,30.6,29.80,North,-999,-999.0,-999.0,70,-99.99,,,-99.99,,2013-02-15 01:03:00,
2013-02-14 20:08:00,39.6,30.6,29.80,North,-999,-999.0,-999.0,70,-99.99,,,-99.99,,2013-02-15 01:08:00,
2013-02-14 20:14:00,39.6,30.6,29.80,North,-999,-999.0,-999.0,70,-99.99,,,-99.99,,2013-02-15 01:14:00,
2013-02-14 20:19:00,39.6,30.6,29.80,North,-999,-999.0,-999.0,70,-99.99,,,-99.99,,2013-02-15 01:19:00,
2013-02-14 20:24:00,39.7,30.8,29.80,North,-999,-999.0,-999.0,70,-99.99,,,-99.99,,2013-02-15 01:24:00,
2013-02-14 20:30:00,39.6,30.6,29.80,North,-999,-999.0,-999.0,70,-99.99,,,-99.99,,2013-02-15 01:30:00,
2013-02-14 20:35:00,39.6,30.6,29.80,North,-999,-999.0,-999.0,70,-99.99,,,-99.99,,2013-02-15 01:35:00,
2013-02-14 20:40:00,39.6,30.6,29.80,North,-999,-999.0,-999.0,70,-99.99,,,-99.99,,2013-02-15 01:40:00,
2013-02-14 20:46:00,39.6,30.6,29.80,North,-999,-999.0,-999.0,70,-99.99,,,-99.99,,2013-02-15 01:46:00,
2013-02-14 20:51:00,39.6,30.6,29.80,North,-999,-999.0,-999.0,70,-99.99,,,-99.99,,2013-02-15 01:51:00,
2013-02-14 20:56:00,39.6,30.6,29.80,North,-999,-999.0,-999.0,70,-99.99,,,-99.99,,2013-02-15 01:56:00,
2013-02-14 21:02:00,39.6,30.6,29.77,North,-999,-999.0,-999.0,70,-99.99,,,-99.99,,2013-02-15 02:02:00,
2013-02-14 21:08:00,39.6,30.6,29.77,North,-999,-999.0,-999.0,70,-99.99,,,-99.99,,2013-02-15 02:08:00,
2013-02-14 21:13:00,39.6,30.6,29.77,North,-999,-999.0,-999.0,70,-99.99,,,-99.99,,2013-02-15 02:13:00,
2013-02-14 21:19:00,39.6,30.6,29.77,North,-999,-999.0,-999.0,70,-99.99,,,-99.99,,2013-02-15 02:19:00,
2013-02-14 21:24:00,39.6,30.6,29.77,North,-999,-999.0,-999.0,70,-99.99,,,-99.99,,2013-02-15 02:24:00,
2013-02-14 21:29:00,39.4,30.4,29.77,North,-999,-999.0,-999.0,70,-99.99,,,-99.99,,2013-02-15 02:29:00,
2013-02-14 21:35:00,39.6,31.0,29.77,North,-999,-999.0,-999.0,71,-99.99,,,-99.99,,2013-02-15 02:35:00,
2013-02-14 21:40:00,39.4,30.8,29.77,North,-999,-999.0,-999.0,71,-99.99,,,-99.99,,2013-02-15 02:40:00,
2013-02-14 21:45:00,39.4,30.8,29.77,North,-999,-999.0,-999.0,71,-99.99,,,-99.99,,2013-02-15 02:45:00,
2013-02-14 21:51:00,39.4,30.8,29.77,North,-999,-999.0,-999.0,71,-99.99,,,-99.99,,2013-02-15 02:51:00,
2013-02-14 21:56:00,39.4,30.8,29.77,North,-999,-999.0,-999.0,71,-99.99,,,-99.99,,2013-02-15 02:56:00,
2013-02-14 22:01:00,39.4,30.8,29.77,North,-999,-999.0,-999.0,71,-99.99,,,-99.99,,2013-02-15 03:01:00,
2013-02-14 22:06:00,39.4,30.8,29.77,North,-999,-999.0,-999.0,71,-99.99,,,-99.99,,2013-02-15 03:06:00,
2013-02-14 22:11:00,39.4,30.8,29.77,North,-999,-999.0,-999.0,71,-99.99,,,-99.99,,2013-02-15 03:11:00,
2013-02-14 22:17:00,39.4,30.8,29.77,North,-999,-999.0,-999.0,71,-99.99,,,-99.99,,2013-02-15 03:17:00,
2013-02-14 22:22:00,39.4,30.8,29.77,North,-999,-999.0,-999.0,71,-99.99,,,-99.99,,2013-02-15 03:22:00,
2013-02-14 22:27:00,39.4,31.1,29.77,North,-999,-999.0,-999.0,72,-99.99,,,-99.99,,2013-02-15 03:27:00,
2013-02-14 22:32:00,39.2,31.0,29.77,North,-999,-999.0,-999.0,72,-99.99,,,-99.99,,2013-02-15 03:32:00,
2013-02-14 22:37:00,39.2,31.0,29.77,North,-999,-999.0,-999.0,72,-99.99,,,-99.99,,2013-02-15 03:37:00,
2013-02-14 22:43:00,39.2,31.0,29.77,North,-999,-999.0,-999.0,72,-99.99,,,-99.99,,2013-02-15 03:43:00,
2013-02-14 22:48:00,39.2,31.0,29.77,North,-999,-999.0,-999.0,72,-99.99,,,-99.99,,2013-02-15 03:48:00,
2013-02-14 22:54:00,39.2,31.0,29.77,North,-999,-999.0,-999.0,72,-99.99,,,-99.99,,2013-02-15 03:54:00,
2013-02-14 22:59:00,39.2,31.0,29.77,North,-999,-999.0,-999.0,72,-99.99,,,-99.99,,2013-02-15 03:59:00,
2013-02-14 23:04:00,39.2,31.0,29.77,North,-999,-999.0,-999.0,72,-99.99,,,-99.99,,2013-02-15 04:04:00,
2013-02-14 23:09:00,39.2,31.0,29.77,North,-999,-999.0,-999.0,72,-99.99,,,-99.99,,2013-02-15 04:09:00,
2013-02-14 23:14:00,39.2,31.0,29.77,North,-999,-999.0,-999.0,72,-99.99,,,-99.99,,2013-02-15 04:14:00,
2013-02-14 23:20:00,39.2,31.0,29.74,North,-999,-999.0,-999.0,72,-99.99,,,-99.99,,2013-02-15 04:20:00,
2013-02-14 23:25:00,39.2,31.0,29.74,North,-999,-999.0,-999.0,72,-99.99,,,-99.99,,2013-02-15 04:25:00,
2013-02-14 23:31:00,39.2,31.0,29.74,North,-999,-999.0,-999.0,72,-99.99,,,-99.99,,2013-02-15 04:31:00,
2013-02-14 23:36:00,39.2,31.0,29.74,North,-999,-999.0,-999.0,72,-99.99,,,-99.99,,2013-02-15 04:36:00,
2013-02-14 23:41:00,39.4,31.1,29.74,North,-999,-999.0,-999.0,72,-99.99,,,-99.99,,2013-02-15 04:41:00,
2013-02-14 23:46:00,39.4,31.1,29.74,North,-999,-999.0,-999.0,72,-99.99,,,-99.99,,2013-02-15 04:46:00,
2013-02-14 23:51:00,39.4,31.1,29.74,North,-999,-999.0,-999.0,72,-99.99,,,-99.99,,2013-02-15 04:51:00,
2013-02-14 23:57:00,39.4,31.1,29.74,North,-999,-999.0,-999.0,72,-99.99,,,-99.99,,2013-02-15 04:57:00,